Location: Ermatingen
(47.6706°N, 9.0857°E)
Time: 08:40:31
(UTC+00:00)

Cosmos 1378 Rocket - Pass Details

Date: 18 September 2020
Orbit: 601 x 628 km, 82.5° (Epoch: 24 October)

Event Time Altitude Azimuth Distance (km) Brightness Sun altitude
Rises 17:57:06 0° 346° (NNW) 2,873 7.3 -5.5°
Reaches altitude 10° 17:59:22 10° 343° (NNW) 1,961 6.5 -5.9°
Maximum altitude 18:03:36 56° 266° (W) 724 4.4 -6.6°
Drops below altitude 10° 18:07:47 10° 188° (S) 1,939 6.1 -7.3°
Sets 18:10:00 0° 184° (S) 2,837 6.9 -7.7°
